• In Uzbekistan
  • List of Countries
  • For 7 days
  • Water Temperature
  • Satellite Maps
  • Weather Map
  • Weather Widgets
  • user-avatar
    Login

    Hourly Weather Shaki

    Today, 21 January, Monday

    Time Temperature Precipitation Wind Pressure Humidity
    00:00 +4°C° 0 mm 1 mps 741 mmHg 48%
    01:00 +4°C° 0 mm 1 mps 741 mmHg 48%
    02:00 +4°C° 0 mm 1 mps 741 mmHg 48%
    03:00 +3°C° 0 mm 1 mps 741 mmHg 48%
    04:00 +3°C° 0 mm 1 mps 741 mmHg 48%
    05:00 +3°C° 0 mm 1 mps 741 mmHg 49%
    06:00 +3°C° 0 mm 1 mps 741 mmHg 49%
    07:00 +4°C° 0 mm 1 mps 740 mmHg 47%
    08:00 +5°C° 0 mm 1 mps 740 mmHg 45%
    09:00 +5°C° 0 mm 0 mps 740 mmHg 40%
    10:00 +7°C° 0 mm 1 mps 740 mmHg 39%
    11:00 +8°C° 0 mm 1 mps 739 mmHg 37%
    12:00 +8°C° 0 mm 1 mps 739 mmHg 36%
    13:00 +8°C° 0 mm 1 mps 738 mmHg 35%
    14:00 +9°C° 0 mm 1 mps 738 mmHg 34%
    15:00 +8°C° 0 mm 2 mps 737 mmHg 33%
    16:00 +7°C° 0 mm 2 mps 737 mmHg 34%
    17:00 +6°C° 0 mm 1 mps 737 mmHg 36%
    18:00 +5°C° 0 mm 1 mps 737 mmHg 37%
    19:00 +4°C° 0 mm 2 mps 736 mmHg 37%
    20:00 +4°C° 0 mm 2 mps 736 mmHg 36%
    21:00 +3°C° 0 mm 2 mps 736 mmHg 36%
    22:00 +3°C° 0 mm 2 mps 736 mmHg 35%
    23:00 +3°C° 0 mm 2 mps 735 mmHg 34%

    Tomorrow, 22 January, Tuesday

    Time Temperature Precipitation Wind Pressure Humidity
    00:00 +2°C° 0 mm 3 mps 735 mmHg 33%
    01:00 +2°C° 0 mm 3 mps 735 mmHg 32%
    02:00 +2°C° 0 mm 3 mps 735 mmHg 32%
    03:00 +2°C° 0 mm 3 mps 734 mmHg 31%
    04:00 +2°C° 0 mm 3 mps 734 mmHg 31%
    05:00 +2°C° 0 mm 3 mps 734 mmHg 31%
    06:00 +2°C° 0 mm 3 mps 734 mmHg 32%
    07:00 +3°C° 0 mm 3 mps 734 mmHg 32%
    08:00 +4°C° 0 mm 3 mps 734 mmHg 32%
    09:00 +5°C° 0 mm 3 mps 734 mmHg 31%
    10:00 +8°C° 0 mm 3 mps 734 mmHg 31%
    11:00 +9°C° 0 mm 3 mps 734 mmHg 30%
    12:00 +10°C° 0 mm 4 mps 734 mmHg 29%
    13:00 +10°C° 0 mm 4 mps 734 mmHg 29%
    14:00 +10°C° 0 mm 4 mps 734 mmHg 29%
    15:00 +11°C° 0 mm 4 mps 734 mmHg 29%
    16:00 +8°C° 0 mm 4 mps 734 mmHg 31%
    17:00 +7°C° 0 mm 4 mps 735 mmHg 33%
    18:00 +7°C° 0 mm 3 mps 735 mmHg 35%
    19:00 +5°C° 0 mm 3 mps 736 mmHg 37%
    20:00 +5°C° 0 mm 3 mps 736 mmHg 38%
    21:00 +5°C° 0 mm 3 mps 736 mmHg 40%
    22:00 +4°C° 0 mm 3 mps 737 mmHg 40%
    23:00 +4°C° 0 mm 3 mps 737 mmHg 41%

    Day after tomorrow, 23 January, Wednesday

    Time Temperature Precipitation Wind Pressure Humidity
    00:00 +5°C° 0 mm 2 mps 737 mmHg 41%
    01:00 +4°C° 0 mm 2 mps 737 mmHg 42%
    02:00 +4°C° 0 mm 2 mps 738 mmHg 43%
    03:00 +5°C° 0 mm 1 mps 738 mmHg 44%
    04:00 +4°C° 0 mm 1 mps 738 mmHg 45%
    05:00 +4°C° 0 mm 1 mps 738 mmHg 45%
    06:00 +4°C° 0 mm 1 mps 738 mmHg 46%
    07:00 +5°C° 0 mm 1 mps 738 mmHg 45%
    08:00 +6°C° 0 mm 1 mps 739 mmHg 43%
    09:00 +6°C° 0 mm 1 mps 739 mmHg 41%
    10:00 +7°C° 0 mm 1 mps 739 mmHg 40%
    11:00 +8°C° 0 mm 1 mps 739 mmHg 39%
    12:00 +9°C° 0 mm 1 mps 738 mmHg 37%
    13:00 +9°C° 0 mm 1 mps 738 mmHg 38%
    14:00 +9°C° 0 mm 1 mps 738 mmHg 38%
    15:00 +9°C° 0 mm 1 mps 738 mmHg 38%
    16:00 +8°C° 0 mm 1 mps 738 mmHg 42%
    17:00 +7°C° 0 mm 1 mps 739 mmHg 45%
    18:00 +6°C° 0 mm 1 mps 739 mmHg 49%
    19:00 +5°C° 0 mm 1 mps 739 mmHg 49%
    20:00 +5°C° 0 mm 1 mps 739 mmHg 49%
    21:00 +5°C° 0 mm 1 mps 740 mmHg 49%
    22:00 +4°C° 0 mm 1 mps 740 mmHg 50%
    23:00 +4°C° 0 mm 1 mps 739 mmHg 50%

    24 January, Thursday

    Time Temperature Precipitation Wind Pressure Humidity
    00:00 +4°C° 0 mm 1 mps 739 mmHg 51%
    01:00 +4°C° 0 mm 1 mps 739 mmHg 51%
    02:00 +4°C° 0 mm 1 mps 739 mmHg 50%
    03:00 +4°C° 0 mm 1 mps 739 mmHg 50%
    04:00 +3°C° 0 mm 1 mps 739 mmHg 49%
    05:00 +2°C° 0 mm 2 mps 739 mmHg 48%
    06:00 +2°C° 0 mm 2 mps 738 mmHg 47%
    07:00 +4°C° 0 mm 1 mps 739 mmHg 45%
    08:00 +5°C° 0 mm 1 mps 739 mmHg 42%
    09:00 +6°C° 0 mm 1 mps 739 mmHg 39%
    10:00 +8°C° 0 mm 1 mps 738 mmHg 37%
    11:00 +8°C° 0 mm 2 mps 738 mmHg 34%
    12:00 +9°C° 0 mm 2 mps 737 mmHg 32%
    13:00 +9°C° 0 mm 2 mps 737 mmHg 32%
    14:00 +10°C° 0 mm 2 mps 737 mmHg 31%
    15:00 +10°C° 0 mm 2 mps 736 mmHg 31%
    16:00 +9°C° 0 mm 2 mps 736 mmHg 34%
    17:00 +8°C° 0 mm 1 mps 736 mmHg 36%
    18:00 +7°C° 0 mm 1 mps 737 mmHg 38%
    19:00 +7°C° 0 mm 1 mps 736 mmHg 37%
    20:00 +7°C° 0 mm 1 mps 736 mmHg 37%
    21:00 +6°C° 0 mm 1 mps 736 mmHg 36%
    22:00 +6°C° 0 mm 1 mps 736 mmHg 36%
    23:00 +6°C° 0 mm 1 mps 735 mmHg 36%

    25 January, Friday

    Time Temperature Precipitation Wind Pressure Humidity
    00:00 +6°C° 0 mm 1 mps 735 mmHg 36%
    01:00 +5°C° 0 mm 2 mps 735 mmHg 36%
    02:00 +5°C° 0 mm 2 mps 734 mmHg 35%
    03:00 +5°C° 0 mm 2 mps 734 mmHg 34%
    04:00 +5°C° 0 mm 3 mps 734 mmHg 34%
    05:00 +5°C° 0 mm 3 mps 733 mmHg 34%
    06:00 +5°C° 0 mm 3 mps 733 mmHg 33%
    07:00 +7°C° 0 mm 3 mps 733 mmHg 33%
    08:00 +8°C° 0 mm 3 mps 733 mmHg 34%
    09:00 +9°C° 0 mm 3 mps 733 mmHg 34%
    10:00 +10°C° 0 mm 4 mps 733 mmHg 35%
    11:00 +11°C° 0 mm 4 mps 733 mmHg 36%
    12:00 +12°C° 0 mm 5 mps 733 mmHg 38%
    13:00 +13°C° 0 mm 5 mps 732 mmHg 38%
    14:00 +13°C° 0 mm 5 mps 732 mmHg 38%
    15:00 +13°C° 0 mm 5 mps 731 mmHg 38%
    16:00 +12°C° 0 mm 5 mps 732 mmHg 40%
    17:00 +10°C° 0 mm 4 mps 732 mmHg 43%
    18:00 +8°C° 0 mm 4 mps 732 mmHg 45%
    19:00 +7°C° 0 mm 4 mps 733 mmHg 44%
    20:00 +7°C° 0 mm 4 mps 733 mmHg 43%
    21:00 +7°C° 0 mm 4 mps 733 mmHg 42%
    22:00 +7°C° 0 mm 4 mps 733 mmHg 42%
    23:00 +6°C° 0 mm 4 mps 733 mmHg 41%

    26 January, Saturday

    Time Temperature Precipitation Wind Pressure Humidity
    00:00 +7°C° 0 mm 3 mps 733 mmHg 41%
    01:00 +7°C° 0 mm 3 mps 733 mmHg 40%
    02:00 +7°C° 0 mm 3 mps 733 mmHg 40%
    03:00 +7°C° 0 mm 3 mps 733 mmHg 39%
    04:00 +7°C° 0 mm 3 mps 733 mmHg 39%
    05:00 +7°C° 0 mm 3 mps 733 mmHg 39%
    06:00 +7°C° 0 mm 3 mps 733 mmHg 39%
    07:00 +8°C° 0 mm 3 mps 733 mmHg 37%
    08:00 +9°C° 0 mm 3 mps 733 mmHg 36%
    09:00 +10°C° 0 mm 3 mps 733 mmHg 34%
    10:00 +11°C° 0 mm 3 mps 733 mmHg 31%
    11:00 +13°C° 0 mm 3 mps 732 mmHg 29%
    12:00 +14°C° 0 mm 4 mps 732 mmHg 26%
    13:00 +15°C° 0 mm 4 mps 731 mmHg 26%
    14:00 +15°C° 0 mm 4 mps 731 mmHg 25%
    15:00 +15°C° 0 mm 4 mps 730 mmHg 25%
    16:00 +14°C° 0 mm 4 mps 731 mmHg 26%
    17:00 +12°C° 0 mm 4 mps 731 mmHg 28%
    18:00 +11°C° 0 mm 4 mps 731 mmHg 30%
    19:00 +11°C° 0 mm 4 mps 731 mmHg 32%
    20:00 +10°C° 0 mm 4 mps 731 mmHg 34%
    21:00 +10°C° 0 mm 4 mps 731 mmHg 36%
    22:00 +10°C° 0 mm 4 mps 731 mmHg 37%
    23:00 +10°C° 0 mm 4 mps 731 mmHg 38%
    Show more